Tracking 29892 objects as of 21-Nov-2024
HD Live streaming from Space Station
objects crossing your sky now

ARIANE 5 DEB (SYLDA)

Track ARIANE 5 DEB (SYLDA) now!
10-day predictions


NORAD ID: 38554
Int'l Code: 2012-035D
Perigee: 266.6 km
Apogee: 19,865.2 km
Inclination: 5.7 °
Period: 349.5 minutes
Semi major axis: 16436 km
RCS: 20.4346 m2 (large)
Launch date: July 5, 2012
Source: France (FR)
Launch site: FRENCH GUIANA (FRGUI)

Note: This is SATELLITE DEBRIS
Your satellite tracking list
Your tracking list is empty




NASA's NSSDC Master Catalog

Two Line Element Set (TLE):
1 38554U 12035D   24325.44532250  .00049264  00000-0  63779-2 0  9996
2 38554   5.7329  74.2896 5961765 126.7465 303.9197  4.11977426131142
Source of the keplerian elements: AFSPC